Algona, IA

6:46 AM CST on February 26, 2017 (GMT -0600)
Algona Municipal

Weather History for KAXA - February, 2013

Change the Weather History Date:

Monday, February 18, 2013

  Actual Average Record
Temperature  
Mean Temperature 20 °F -  
Max Temperature 35 °F 30 °F 57 °F (2017)
Min Temperature 6 °F 17 °F -13 °F (2006)
Degree Days  
Heating Degree Days 44    
Moisture  
Dew Point 20 °F    
Average Humidity 80    
Maximum Humidity 100    
Minimum Humidity 67    
Precipitation  
Precipitation 0.00 in - - ()
Sea Level Pressure  
Sea Level Pressure 29.67 in    
Wind  
Wind Speed 15 mph (WNW)    
Max Wind Speed 29 mph    
Max Gust Speed 41 mph    
Visibility 9 miles    
Events Snow    
Averages and records for this station are not official NWS values.
T = Trace of Precipitation, MM = Missing Value Source: NWS Daily Summary

Daily Weather History Graph

Daily Weather History Graph

Search for Another Location

Airport or City:

Trip Planner

Search our weather history database for the weather conditions in past years. The results will help you decide how hot, cold, wet, or windy it might be!

Date:

Astronomy

Feb. 18, 2013 Rise Set
Actual Time 7:09 AM CST 5:52 PM CST
Civil Twilight 6:40 AM CST 6:21 PM CST
Nautical Twilight 6:07 AM CST 6:54 PM CST
Astronomical Twilight 5:35 AM CST 7:27 PM CST
Moon 11:34 AM CST (2/18) 1:54 AM CST (2/18)
Length of Visible Light 11h 40m
Length of Day
10h 42m
First Quarter, 58% of the Moon is Illuminated
Feb 18
First Quarter
Feb 25
Full
Mar 4
Last Quarter
Mar 11
New
Mar 19
First Quarter

Hourly Weather History & Observations

Time (CST) Temp. Windchill Dew Point Humidity Pressure Visibility Wind Dir Wind Speed Gust Speed Precip Events Conditions
12:15 AM 35.6 °F 26.2 °F 28.4 °F 75% 29.56 in 10.0 mi South 15.0 mph - N/A   Clear
12:35 AM 33.8 °F 23.9 °F 28.4 °F 81% 29.56 in 10.0 mi South 15.0 mph - N/A   Clear
12:55 AM 33.8 °F 24.3 °F 28.4 °F 81% 29.56 in - South 13.8 mph - N/A   Clear
1:15 AM 33.8 °F 24.8 °F 28.4 °F 81% 29.56 in 10.0 mi South 12.7 mph - N/A   Clear
1:35 AM 33.8 °F 25.8 °F 28.4 °F 81% 29.56 in 10.0 mi South 10.4 mph - N/A   Clear
1:55 AM 33.8 °F 24.3 °F 28.4 °F 81% 29.56 in 10.0 mi South 13.8 mph - N/A   Clear
2:15 AM 33.8 °F 26.4 °F 30.2 °F 87% 29.56 in 10.0 mi South 9.2 mph - N/A   Clear
2:35 AM 33.8 °F 26.4 °F 30.2 °F 87% 29.57 in 10.0 mi South 9.2 mph - N/A   Clear
2:55 AM 33.8 °F 25.8 °F 28.4 °F 81% 29.56 in 10.0 mi South 10.4 mph - N/A   Clear
3:15 AM 32.0 °F 23.6 °F 28.4 °F 87% 29.55 in 10.0 mi South 10.4 mph - N/A   Clear
3:35 AM 32.0 °F 23.6 °F 28.4 °F 87% 29.54 in 10.0 mi South 10.4 mph - N/A   Clear
3:55 AM 32.0 °F 24.2 °F 28.4 °F 87% 29.53 in 10.0 mi South 9.2 mph - N/A   Clear
4:15 AM 32.0 °F 28.7 °F 28.4 °F 87% 29.52 in 10.0 mi South 3.5 mph - N/A   Clear
4:35 AM 32.0 °F 24.8 °F 28.4 °F 87% 29.54 in 10.0 mi South 8.1 mph - N/A   Clear
4:55 AM 32.0 °F 25.6 °F 28.4 °F 87% 29.55 in 10.0 mi SSW 6.9 mph - N/A   Clear
5:15 AM 30.2 °F 25.4 °F 28.4 °F 93% 29.55 in 10.0 mi SW 4.6 mph - N/A   Clear
5:35 AM 30.2 °F 23.4 °F 28.4 °F 93% 29.55 in 10.0 mi WSW 6.9 mph - N/A   Clear
5:55 AM 28.4 °F 24.6 °F 28.4 °F 100% 29.55 in 10.0 mi WSW 3.5 mph - N/A   Clear
6:15 AM 30.2 °F 25.4 °F 28.4 °F 93% 29.55 in 10.0 mi West 4.6 mph - N/A   Clear
6:35 AM 30.2 °F 22.6 °F 28.4 °F 93% 29.55 in 10.0 mi NW 8.1 mph - N/A   Clear
6:55 AM 30.2 °F 24.3 °F 28.4 °F 93% 29.55 in 10.0 mi WNW 5.8 mph - N/A   Clear
7:15 AM 30.2 °F 24.3 °F 28.4 °F 93% 29.58 in 9.0 mi WSW 5.8 mph - N/A   Clear
7:35 AM 30.2 °F 21.9 °F 28.4 °F 93% 29.58 in 9.0 mi West 9.2 mph - N/A   Clear
7:55 AM 32.0 °F 23.0 °F 30.2 °F 93% 29.57 in 9.0 mi NW 11.5 mph - N/A   Clear
8:15 AM 33.8 °F 24.8 °F 32.0 °F 93% 29.57 in 10.0 mi NW 12.7 mph - N/A   Clear
8:35 AM 33.8 °F 26.4 °F 32.0 °F 93% 29.59 in 10.0 mi NW 9.2 mph - N/A   Clear
8:55 AM 33.8 °F 26.4 °F 32.0 °F 93% 29.60 in 10.0 mi NW 9.2 mph - N/A   Scattered Clouds
9:15 AM 35.6 °F 30.7 °F 32.0 °F 87% 29.60 in 10.0 mi NW 5.8 mph - N/A   Overcast
9:35 AM 35.6 °F 28.0 °F 32.0 °F 87% 29.60 in 10.0 mi NW 10.4 mph - N/A   Overcast
9:55 AM 35.6 °F 28.0 °F 32.0 °F 87% 29.60 in - NW 10.4 mph - N/A   Overcast
10:15 AM 35.6 °F 28.6 °F 32.0 °F 87% 29.61 in 9.0 mi NW 9.2 mph - N/A   Overcast
10:35 AM 35.6 °F 29.2 °F 32.0 °F 87% 29.61 in 8.0 mi NW 8.1 mph - N/A   Overcast
10:55 AM 32.0 °F 19.2 °F 30.2 °F 93% 29.62 in 8.0 mi NNW 23.0 mph 34.5 mph N/A Snow Light Snow
11:15 AM 30.2 °F 17.4 °F 26.6 °F 86% 29.64 in 10.0 mi NNW 20.7 mph 34.5 mph N/A Snow Light Snow
11:35 AM 28.4 °F 14.4 °F 24.8 °F 86% 29.65 in 10.0 mi NNW 23.0 mph 35.7 mph N/A Snow Light Snow
11:55 AM 28.4 °F 14.1 °F 24.8 °F 86% 29.65 in 10.0 mi NW 24.2 mph 32.2 mph N/A Snow Light Snow
12:15 PM 28.4 °F 15.1 °F 23.0 °F 80% 29.66 in 10.0 mi NW 20.7 mph 32.2 mph N/A Snow Light Snow
12:35 PM 28.4 °F 14.7 °F 23.0 °F 80% 29.67 in 10.0 mi NW 21.9 mph 32.2 mph N/A Snow Light Snow
12:55 PM 26.6 °F 11.7 °F 21.2 °F 80% 29.67 in 10.0 mi NW 24.2 mph 31.1 mph N/A Snow Light Snow
1:15 PM 26.6 °F 11.4 °F 21.2 °F 80% 29.68 in 10.0 mi NW 25.3 mph 32.2 mph N/A Snow Light Snow
1:35 PM 26.6 °F 13.1 °F 19.4 °F 74% 29.68 in 10.0 mi NW 19.6 mph 34.5 mph N/A Snow Light Snow
1:55 PM 24.8 °F 8.7 °F 17.6 °F 74% 29.70 in 10.0 mi NW 26.5 mph 35.7 mph N/A Snow Light Snow
2:15 PM 24.8 °F 9.0 °F 15.8 °F 69% 29.71 in 10.0 mi NNW 25.3 mph 36.8 mph N/A Snow Light Snow
2:35 PM 24.8 °F 8.7 °F 15.8 °F 69% 29.71 in 10.0 mi NW 26.5 mph 33.4 mph N/A Snow Light Snow
2:55 PM 24.8 °F 10.0 °F 15.8 °F 69% 29.72 in 10.0 mi NNW 21.9 mph 33.4 mph N/A Snow Light Snow
3:15 PM 23.0 °F 7.2 °F 15.8 °F 74% 29.73 in 10.0 mi NW 23.0 mph 31.1 mph N/A Snow Light Snow
3:35 PM 23.0 °F 6.9 °F 14.0 °F 68% 29.74 in 10.0 mi NW 24.2 mph 33.4 mph N/A Snow Light Snow
3:55 PM 23.0 °F 6.6 °F 14.0 °F 68% 29.74 in 10.0 mi NW 25.3 mph 32.2 mph N/A Snow Light Snow
4:15 PM 21.2 °F 4.9 °F 14.0 °F 74% 29.74 in 8.0 mi NW 23.0 mph 32.2 mph N/A Snow Light Snow
4:35 PM 21.2 °F 4.5 °F 12.2 °F 68% 29.75 in 10.0 mi NW 24.2 mph 34.5 mph N/A Snow Light Snow
4:55 PM 21.2 °F 4.9 °F 12.2 °F 68% 29.75 in 9.0 mi NW 23.0 mph 36.8 mph N/A Snow Light Snow
5:35 PM 17.6 °F 0.5 °F 8.6 °F 68% 29.77 in 10.0 mi NW 21.9 mph 38.0 mph N/A Snow Light Snow
5:55 PM 17.6 °F 0.9 °F 8.6 °F 68% 29.78 in 10.0 mi NW 20.7 mph 31.1 mph N/A Snow Light Snow
6:15 PM 17.6 °F 1.7 °F 8.6 °F 68% 29.78 in 7.0 mi NW 18.4 mph 32.2 mph N/A Snow Light Snow
6:35 PM 15.8 °F -3.1 °F 6.8 °F 68% 29.79 in 9.0 mi NW 25.3 mph 40.3 mph N/A Snow Light Snow
6:55 PM 15.8 °F -1.9 °F 6.8 °F 68% 29.80 in 10.0 mi NW 21.9 mph 34.5 mph N/A Snow Light Snow
7:15 PM 15.8 °F -4.1 °F 6.8 °F 68% 29.81 in 10.0 mi NW 28.8 mph 40.3 mph N/A Snow Light Snow
7:35 PM 14.0 °F -3.9 °F 5.0 °F 67% 29.82 in 10.0 mi NNW 20.7 mph 34.5 mph N/A Snow Light Snow
7:55 PM 14.0 °F -5.8 °F 8.6 °F 79% 29.82 in 2.5 mi NW 26.5 mph - N/A Snow Light Snow
8:15 PM 14.0 °F -3.9 °F 6.8 °F 73% 29.82 in 10.0 mi NW 20.7 mph 36.8 mph N/A Snow Light Snow
8:35 PM 12.2 °F -6.7 °F 6.8 °F 79% 29.83 in 4.0 mi NNW 21.9 mph 31.1 mph N/A Snow Light Snow
8:55 PM 12.2 °F -8.6 °F 5.0 °F 73% 29.83 in 10.0 mi NNW 27.6 mph 38.0 mph N/A Snow Light Snow
9:15 PM 12.2 °F -6.3 °F 5.0 °F 73% 29.84 in 10.0 mi NW 20.7 mph 35.7 mph N/A Snow Light Snow
9:35 PM 12.2 °F -7.9 °F 3.2 °F 67% 29.84 in 8.0 mi NNW 25.3 mph 36.8 mph N/A Snow Light Snow
9:55 PM 10.4 °F -10.3 °F 3.2 °F 73% 29.84 in 9.0 mi NW 25.3 mph 36.8 mph N/A Snow Light Snow
10:15 PM 10.4 °F -9.9 °F 3.2 °F 73% 29.85 in 7.0 mi NW 24.2 mph 39.1 mph N/A Snow Light Snow
10:35 PM 10.4 °F -9.9 °F 3.2 °F 73% 29.85 in 6.0 mi NNW 24.2 mph 34.5 mph N/A Snow Light Snow
11:15 PM 6.8 °F -15.5 °F -0.4 °F 72% 29.87 in 8.0 mi NW 26.5 mph 41.4 mph N/A Snow Light Snow
11:35 PM 6.8 °F -13.8 °F -0.4 °F 72% 29.88 in 8.0 mi NW 21.9 mph 33.4 mph N/A Snow Light Snow
11:55 PM 6.8 °F -13.8 °F -0.4 °F 72% 29.89 in 9.0 mi NW 21.9 mph 32.2 mph N/A Snow Light Snow